RH
32 33 33 33 32 31 30 29 28 26 26 26 25 25 25 25 24 24 23 21 22 23 23 24 24 24 25 27 30 32 33 35 36 36 36 35 33 31 27 21 22 23 21 23 35 43 39 38 48 62 74 86 95 94 85 78 76 73 69 65 62 58 54 51 46 42 43 41 39 42 41 39 38 38 40 42 42 42 41 40 41 42 41 42 45
34 35 35 34 33 31 30 28 27 25 24 23 24 25 26 27 27 28 27 26 25 25 24 24 24 23 24 25 26 29 31 33 37 38 39 38 35 34 32 27 22 22 23 20 25 36 43 42 46 57 71 84 95 95 87 80 78 77 73 67 63 59 54 54 53 46 39 36 37 41 43 43 41 42 44 45 46 48 46 44 45 44 45 47 49
36 36 36 35 32 31 29 27 25 24 22 22 22 23 25 27 28 29 30 31 29 28 26 24 24 23 23 23 24 26 28 31 34 37 40 42 40 37 36 33 27 22 22 22 22 26 37 46 49 55 65 77 87 90 87 84 81 80 77 69 64 63 58 56 58 52 40 35 35 37 43 47 47 47 49 49 52 54 50 48 49 49 50 51 49
37 37 35 34 31 30 28 25 23 21 21 22 21 22 26 30 32 31 32 33 32 30 28 25 24 24 23 23 23 25 28 32 35 36 38 41 42 42 40 38 34 27 21 21 23 25 30 39 50 57 64 72 80 85 89 89 84 82 81 74 67 66 62 61 61 53 42 37 36 37 41 48 53 54 55 57 57 56 52 51 53 53 53 52 49
38 36 34 32 30 29 26 23 21 20 21 23 25 26 29 32 35 35 36 35 34 33 31 27 25 24 24 24 25 27 32 36 38 37 38 41 44 44 42 41 40 34 27 21 21 26 28 32 43 55 62 70 81 89 91 91 88 84 82 77 70 67 67 67 63 52 43 40 39 39 43 51 59 62 62 60 58 54 53 54 56 57 56 53 51
37 34 33 32 29 27 24 21 21 22 24 27 29 31 33 35 37 38 38 37 36 35 33 29 26 25 25 25 26 30 37 40 41 41 42 44 46 45 42 42 42 40 35 26 20 23 27 29 36 45 54 66 82 94 95 91 91 88 83 78 73 70 72 71 65 54 46 45 46 47 48 52 59 64 64 61 59 56 56 57 59 59 57 56 55
36 34 33 32 30 27 23 22 24 28 31 32 33 34 35 36 38 38 39 38 38 37 34 32 29 26 26 25 27 32 39 44 45 44 45 47 49 48 44 43 43 42 40 33 24 21 23 29 32 38 50 62 73 90 96 91 90 92 87 81 75 73 73 70 65 58 50 51 54 56 57 56 56 59 62 63 62 62 64 64 63 62 61 60 59
35 35 34 33 30 26 22 24 30 34 37 37 37 36 36 38 38 38 39 38 39 38 36 34 31 29 27 25 27 32 37 44 46 46 47 47 49 51 49 46 45 43 42 40 33 24 20 25 30 34 51 63 65 77 90 88 86 91 90 85 79 74 71 69 67 62 55 58 62 62 69 72 68 64 65 65 64 66 70 70 68 67 66 66 67
37 37 35 33 29 25 23 27 33 37 39 40 40 39 40 41 41 42 41 41 41 41 39 36 34 32 30 27 27 29 34 40 43 44 46 46 48 52 53 50 46 44 44 42 38 31 20 19 26 30 45 59 58 65 82 85 84 88 89 88 83 76 71 70 69 63 61 65 67 67 76 85 81 75 71 68 68 72 76 75 73 72 73 73 72
38 37 35 32 27 24 26 32 37 41 43 44 44 45 46 46 46 45 45 45 46 44 43 42 39 36 34 31 29 28 30 35 39 42 46 47 51 54 54 52 48 45 47 45 40 36 24 16 21 26 38 52 53 57 72 78 80 87 89 89 84 76 73 71 67 66 69 73 71 69 76 84 84 79 74 70 72 76 78 77 76 77 77 78 74
37 35 34 30 27 28 33 39 43 45 47 48 49 49 49 49 49 49 49 48 48 46 46 45 43 41 39 37 34 31 30 32 35 41 47 50 54 56 55 54 50 47 49 48 43 38 28 18 19 24 34 47 52 54 60 68 80 91 93 91 84 76 73 69 66 70 79 83 77 70 72 81 85 83 77 73 73 76 77 77 79 79 80 81 77
36 34 32 30 30 35 41 44 47 50 51 51 48 46 47 51 53 56 57 56 55 51 49 46 43 42 42 40 38 35 30 29 34 41 48 54 56 57 57 56 54 49 48 49 45 39 30 22 21 24 29 40 51 55 54 63 83 96 94 91 85 78 73 67 63 70 82 87 82 73 72 80 85 83 77 74 73 75 77 79 81 82 86 85 79
34 33 32 32 34 40 45 47 50 53 52 48 44 45 50 55 58 61 62 63 60 55 51 48 44 42 41 40 39 37 32 31 34 41 48 55 58 58 59 58 56 53 50 49 48 42 33 26 24 25 27 34 46 54 53 64 86 97 95 93 88 81 76 69 62 67 78 83 81 75 74 79 81 79 76 74 74 78 83 85 86 87 89 86 77
32 32 33 34 38 44 46 49 53 54 50 46 46 50 55 57 59 60 61 62 60 56 53 49 47 44 41 39 39 38 36 33 36 42 49 54 57 58 59 59 58 56 53 49 47 42 34 29 25 25 29 33 40 48 56 71 87 95 96 95 90 83 77 73 70 69 75 81 78 69 67 72 75 74 74 75 79 84 86 88 89 90 89 84 76
33 34 35 38 43 46 47 52 56 54 49 50 53 57 59 59 59 59 60 59 58 56 54 51 49 47 43 41 40 39 38 37 39 46 52 54 56 56 58 59 58 57 55 51 45 39 34 32 28 27 31 35 36 42 57 73 84 91 97 95 90 84 77 75 77 74 71 76 73 64 64 71 74 75 76 79 83 86 87 88 90 89 85 79 71
36 37 41 46 48 47 49 55 57 54 52 55 59 61 61 61 61 60 58 57 56 55 54 52 51 48 45 44 42 40 39 40 45 51 55 55 55 55 56 58 57 57 57 54 46 40 37 35 31 28 29 34 37 40 53 74 87 92 96 93 88 86 79 75 80 79 71 69 67 62 63 70 78 82 83 83 85 89 90 89 86 82 77 72 66
39 42 48 52 50 48 51 56 58 56 56 60 65 68 68 66 64 62 59 57 55 54 53 53 52 50 48 47 46 43 41 43 50 55 55 55 57 58 59 60 59 58 58 56 50 45 42 39 35 30 26 31 39 41 51 75 93 94 91 88 85 85 82 78 81 84 79 72 68 65 64 71 83 90 90 89 90 89 87 84 80 77 73 67 63
43 47 53 54 49 49 53 57 58 58 59 66 73 77 76 74 69 65 62 59 57 56 55 54 53 52 51 49 49 48 46 49 55 58 58 58 60 61 61 62 62 61 59 58 55 49 45 43 39 33 28 30 37 42 52 76 94 95 90 88 84 83 83 83 83 85 82 76 72 71 73 81 90 93 92 91 87 82 80 80 78 74 67 62 60
49 51 55 54 48 49 55 57 59 61 65 73 81 82 81 79 74 70 68 67 66 65 62 59 57 56 55 53 53 54 54 57 61 62 62 61 61 61 60 61 62 61 59 60 57 51 47 46 41 34 30 31 34 42 57 76 90 94 93 90 85 83 84 86 85 82 79 78 78 79 83 88 90 88 86 81 76 75 77 76 71 65 61 59 58
53 51 55 54 46 47 55 59 63 69 74 79 83 83 82 80 77 75 76 76 75 74 71 67 63 63 62 60 60 61 63 65 65 64 64 62 61 61 59 59 60 60 60 62 60 53 50 47 41 35 34 33 35 46 65 79 85 92 94 89 84 83 82 83 83 81 81 85 86 84 84 84 81 78 76 73 74 76 74 68 61 57 56 56 55
53 49 51 51 45 47 56 62 67 76 81 82 83 84 82 80 79 80 81 80 79 79 78 74 72 71 71 68 66 68 71 72 70 68 65 63 62 61 60 61 63 63 63 63 61 56 51 45 40 36 36 37 39 48 66 78 83 89 92 88 86 85 82 82 85 85 85 87 85 81 79 78 78 79 78 77 76 73 66 61 57 54 54 54 55
50 46 46 45 45 51 60 66 72 79 83 85 85 84 82 82 82 83 83 82 81 81 80 80 80 81 81 78 76 76 77 78 77 74 71 69 68 67 68 69 68 66 65 64 62 58 50 42 39 38 38 40 43 50 62 72 78 85 90 90 89 87 85 85 87 87 85 83 80 77 77 79 83 84 81 76 71 65 61 58 55 54 54 56 57
48 44 42 42 48 56 63 70 76 80 85 88 86 84 84 84 85 87 86 85 83 82 82 83 85 87 89 88 86 85 85 86 83 81 80 79 76 73 73 73 72 69 64 63 63 57 46 40 43 46 46 47 50 55 60 67 77 87 92 91 90 90 88 87 87 87 84 79 76 75 79 82 84 81 74 68 63 60 57 54 54 56 58 58 58
45 41 41 44 51 58 64 71 78 82 87 90 87 85 87 88 88 90 90 87 85 83 82 83 86 88 91 94 92 92 93 92 88 85 84 81 77 73 72 72 73 72 67 66 65 55 43 42 51 56 57 57 56 56 60 72 86 93 92 91 91 91 91 89 86 84 83 78 76 78 81 82 78 71 65 62 60 57 55 55 58 61 60 57 55
40 40 44 48 54 59 63 70 78 84 88 90 88 87 90 92 92 92 92 90 89 88 86 86 86 86 91 96 97 97 97 96 92 86 82 79 76 74 73 73 75 74 70 68 62 49 44 50 58 61 62 63 61 61 71 86 96 95 91 91 92 92 91 88 83 83 84 83 82 83 81 76 69 63 60 59 58 57 58 61 62 61 57 53 48
37 41 47 52 55 59 62 67 76 84 89 91 89 89 93 95 94 94 94 93 93 93 93 93 92 91 94 98 99 99 99 98 94 88 82 79 78 77 76 76 76 74 70 66 58 51 52 60 67 69 70 70 73 79 88 96 98 96 94 95 95 94 92 88 84 84 87 87 85 81 74 64 59 58 59 60 61 62 63 64 63 59 53 47 41
38 45 50 53 55 58 60 64 73 82 87 91 91 92 95 96 95 95 97 97 96 96 96 97 98 98 99 99 99 100 100 98 93 90 85 82 81 81 78 75 75 72 67 63 60 58 61 69 75 77 77 81 89 95 97 98 98 98 97 96 96 96 93 90 90 90 88 85 78 71 62 57 57 60 63 65 65 64 64 64 62 55 47 41 38
42 48 51 52 54 55 57 61 68 78 86 91 93 95 97 97 96 95 97 97 97 97 97 97 99 99 99 99 98 99 100 97 91 86 82 80 80 79 75 75 76 71 63 60 62 63 65 71 77 80 81 89 97 99 98 99 99 98 97 96 96 95 93 92 91 88 83 76 68 61 58 58 61 65 67 67 66 63 63 63 59 49 41 38 37
46 50 51 53 54 53 54 57 64 75 85 91 94 96 98 97 96 96 97 97 97 98 97 97 99 99 99 99 99 100 100 97 91 84 80 78 77 74 74 79 79 68 59 59 63 63 62 65 73 82 88 93 97 98 98 99 98 97 97 97 95 94 93 90 87 83 77 70 64 62 62 63 66 68 68 66 64 63 64 62 54 46 41 41 41
50 52 53 54 54 52 51 54 59 70 82 91 95 97 98 97 96 98 100 99 99 99 98 97 99 99 99 99 99 99 100 97 93 89 88 85 82 79 79 81 76 64 57 58 61 63 66 69 77 88 94 95 97 99 99 99 98 97 96 95 94 92 89 85 82 78 73 68 65 65 66 68 69 70 68 65 64 65 64 58 51 47 46 46 44
54 55 55 56 56 52 50 51 55 63 75 87 94 97 98 97 97 97 99 100 99 99 100 100 99 99 99 99 97 97 99 98 94 92 91 88 81 77 73 70 62 55 56 63 69 75 81 83 86 91 95 96 97 98 97 97 97 95 94 93 91 88 84 81 78 74 70 67 67 68 70 72 72 69 66 64 65 64 61 57 53 51 49 47 44
55 56 56 57 57 54 51 49 52 57 67 79 90 96 97 97 97 96 97 99 100 100 99 99 100 99 98 98 96 95 97 96 93 92 90 82 74 68 61 54 50 51 61 77 88 92 93 92 92 93 94 95 96 96 95 95 94 92 91 89 85 82 80 77 74 71 69 69 70 71 73 72 69 65 63 64 64 63 61 59 56 52 47 46 44
54 55 56 57 57 54 51 49 49 53 60 70 83 92 96 98 97 97 96 98 100 100 98 98 99 100 98 98 99 97 95 93 91 89 83 77 74 69 58 47 49 61 78 93 99 98 97 97 96 95 95 95 94 94 93 93 92 90 88 85 81 79 77 74 71 71 71 72 73 73 73 70 67 65 64 65 65 63 60 56 52 48 45 45 45
53 54 55 56 57 54 50 47 46 48 54 63 74 85 93 96 97 96 96 98 99 99 98 97 98 99 100 99 98 94 89 85 86 86 81 76 75 71 61 55 63 80 94 99 98 96 96 95 95 95 95 94 93 92 91 91 89 87 84 81 79 78 75 74 73 72 73 73 74 73 72 70 68 67 66 65 64 61 56 51 48 45 45 45 46
53 53 53 54 55 54 50 47 44 43 47 55 64 75 85 92 95 95 95 98 99 99 99 99 97 97 96 94 91 89 86 84 86 89 87 82 75 69 64 65 76 89 96 96 96 95 95 93 93 93 93 92 92 91 89 88 86 83 81 80 79 77 75 74 74 74 74 74 73 73 72 70 69 68 67 63 59 55 51 48 46 45 46 47 48
53 51 50 51 53 53 51 48 45 42 42 47 55 66 75 84 92 95 94 95 98 99 99 100 98 93 90 90 89 89 90 92 89 86 86 84 78 72 72 79 87 94 96 95 95 95 94 94 93 92 90 91 91 89 86 84 83 82 80 80 78 77 75 75 75 74 73 72 72 72 72 71 71 69 65 59 55 52 51 48 47 48 49 50 51
56 51 49 49 52 53 52 50 46 44 41 41 46 56 65 74 84 92 93 93 94 94 95 98 98 92 89 93 95 91 90 93 91 86 86 89 84 79 82 91 96 96 95 94 93 93 93 92 91 90 90 91 90 88 86 85 85 83 81 78 77 77 76 75 75 74 73 74 73 73 73 72 70 65 59 55 52 51 49 49 49 50 51 52 52
60 54 50 48 50 53 54 52 48 45 43 41 40 46 56 64 73 83 91 93 93 92 90 93 96 93 91 96 100 97 92 94 94 93 93 97 96 91 90 93 94 94 94 94 93 93 92 92 91 92 93 92 92 91 89 87 85 83 80 77 76 75 75 75 75 75 75 76 74 73 73 70 63 57 53 51 50 49 49 50 52 52 52 52 52
63 58 53 49 49 50 53 54 51 46 44 42 39 39 46 55 62 70 81 88 93 93 91 91 93 94 94 96 99 98 95 94 96 96 96 97 99 99 96 95 96 98 98 98 96 95 95 95 94 94 94 93 92 91 88 85 83 80 78 77 76 76 76 76 76 76 76 75 74 74 72 66 58 53 51 50 48 48 50 51 52 52 51 50 49
66 62 57 53 51 49 50 52 53 49 44 42 39 36 38 45 52 58 66 76 85 90 93 94 92 91 94 98 99 98 97 96 97 98 97 96 97 97 95 96 100 100 99 99 99 98 97 96 96 95 94 93 91 89 87 85 82 80 78 77 77 76 76 76 76 76 76 75 74 72 68 61 56 54 52 51 50 50 51 51 51 50 49 47 46
70 67 64 60 55 50 48 50 53 53 47 43 40 36 33 36 44 50 54 62 71 79 86 92 92 90 92 97 98 97 97 97 96 97 98 98 99 97 94 96 100 100 99 100 100 98 97 97 96 95 94 94 92 91 89 87 85 82 80 78 76 75 74 75 75 75 76 75 73 70 64 60 58 54 51 49 48 49 48 48 48 48 47 47 45
74 72 71 67 60 54 49 47 49 52 49 44 41 37 32 31 35 42 47 52 59 66 73 81 87 89 92 94 95 95 95 95 96 97 97 98 99 98 96 97 99 99 99 99 98 97 97 97 96 96 95 94 93 92 91 89 87 84 81 78 77 77 77 77 77 76 75 74 71 67 62 58 55 51 48 48 48 48 47 47 47 48 48 46 44
80 76 76 73 67 61 55 50 48 49 49 44 41 38 35 30 29 34 41 45 50 55 60 67 74 81 86 89 91 92 93 93 94 95 96 96 96 96 96 96 97 96 96 97 96 97 97 97 97 96 95 94 93 93 91 89 88 85 84 83 83 83 83 80 78 75 73 70 66 61 56 53 50 48 48 49 49 48 48 49 50 49 47 45 43
84 81 80 77 73 68 63 57 52 50 47 45 42 39 37 32 28 29 33 38 43 48 52 55 60 66 73 79 83 86 89 90 92 93 94 94 95 95 95 95 94 94 93 94 93 94 94 94 94 94 93 93 93 93 92 91 90 89 88 88 87 85 82 78 73 69 64 61 57 54 51 50 49 49 51 51 50 49 51 52 51 49 45 43 41
87 86 84 81 79 78 74 66 59 53 50 47 44 40 38 34 30 27 29 32 36 41 46 49 51 54 58 64 70 75 79 83 86 88 90 91 92 93 93 93 93 92 92 92 91 92 92 91 90 90 90 90 90 91 91 91 90 89 88 86 83 80 75 69 65 60 56 54 52 52 50 51 51 51 51 50 50 52 53 53 50 46 43 40 38
88 87 84 82 84 87 84 74 64 58 54 51 46 42 39 35 30 27 27 29 30 34 39 43 46 48 48 50 54 60 65 70 74 77 80 82 85 87 89 90 90 90 90 89 90 90 90 90 89 88 87 86 86 85 85 85 84 83 81 78 75 71 66 62 58 56 53 53 53 52 51 52 52 51 50 50 51 53 54 51 46 42 39 37 35
87 86 84 83 85 86 85 78 70 62 58 54 50 45 42 38 32 27 26 27 28 29 31 35 40 43 45 45 44 46 49 54 58 63 66 68 72 75 78 81 85 86 86 86 85 85 85 85 85 85 85 85 84 82 81 79 78 76 74 72 69 64 60 57 55 53 53 52 52 51 51 51 51 50 50 50 51 53 53 49 44 39 37 35 33
85 85 85 86 87 85 83 82 78 70 64 59 55 49 45 41 35 29 25 26 26 27 28 29 32 35 39 42 42 42 43 44 47 50 52 54 57 60 63 66 71 74 78 79 80 79 79 78 78 78 78 77 77 76 75 72 70 68 65 63 60 58 56 54 52 51 51 50 50 51 51 51 51 50 49 50 51 52 51 47 42 38 35 33 33
77 76 77 81 85 87 85 84 82 78 73 67 61 54 49 46 39 32 28 26 25 26 26 27 28 29 31 34 37 40 41 42 42 43 44 45 47 48 50 52 54 57 60 64 68 70 71 72 72 72 71 70 70 70 68 65 63 61 58 56 54 54 53 52 51 50 50 50 51 51 51 50 50 48 48 48 49 49 47 43 39 35 34 33 33
72 71 71 73 78 83 85 85 84 83 81 77 71 64 58 52 46 38 32 29 28 27 26 25 26 27 27 28 30 32 34 36 37 38 39 39 40 41 42 44 45 46 48 50 52 55 58 60 62 63 63 63 63 62 62 60 58 56 54 53 51 51 50 50 50 50 50 50 50 50 49 48 46 45 45 46 46 44 42 40 37 35 34 34 33
63 65 66 68 71 76 81 84 85 84 83 82 80 75 70 65 58 49 41 35 32 31 30 28 27 26 25 26 27 27 27 29 30 31 32 33 34 35 36 37 39 41 43 44 45 46 48 50 52 53 55 56 56 57 58 57 56 54 53 51 50 49 49 48 49 49 49 49 49 48 46 44 43 42 42 44 43 41 40 38 36 35 35 34 34